Weather History for Stanton, MN

Change the Weather History Date:

Friday, December 7, 2012

  Actual Average (KLVN) Record (KLVN)
Temperature  
Mean Temperature 27 °F -  
Max Temperature 32 °F 28 °F 45 °F (1991)
Min Temperature 22 °F 12 °F -25 °F (1972)
Degree Days  
Heating Degree Days 38    
Moisture  
Dew Point 23 °F    
Average Humidity 81    
Maximum Humidity 92    
Minimum Humidity 66    
Precipitation  
Precipitation 0.00 in - - ()
Sea Level Pressure  
Sea Level Pressure 30.00 in    
Wind  
Wind Speed 6 mph (North)    
Max Wind Speed 13 mph    
Max Gust Speed -    
Visibility 8 miles    
Events Snow    
Averages and records for this station are not official NWS values.
T = Trace of Precipitation, MM = Missing Value Source: NWS Daily Summary

Daily Weather History Graph

Daily Weather History Graph

Search for Another Location

Airport:

Trip Planner

Search our weather history database for the weather conditions in past years. The results will help you decide how hot, cold, wet, or windy it might be!

Date:

Astronomy

Dec. 07, 2012 Rise Set
Actual Time 7:35 AM CST 4:32 PM CST
Civil Twilight 7:02 AM CST 5:05 PM CST
Nautical Twilight 6:25 AM CST 5:42 PM CST
Astronomical Twilight 5:50 AM CST 6:17 PM CST
Moon 12:41 AM CST (12/7) 12:41 PM CST (12/7)
Length of Visible Light 10h 03m
Length of Day
8h 57m
Last Quarter, 38% of the Moon is Illuminated
Dec 7
Last Quarter
Dec 13
New
Dec 19
First Quarter
Dec 28
Full
Jan 4
Last Quarter

Hourly Weather History & Observations

Time (CST) Temp. Windchill Dew Point Humidity Pressure Visibility Wind Dir Wind Speed Gust Speed Precip Events Conditions
12:12 AM 31.6 °F 26.0 °F 24.4 °F 75% 29.98 in 10.0 mi NW 5.8 mph - N/A   Clear
12:32 AM 31.1 °F 22.4 °F 23.5 °F 74% 29.98 in 10.0 mi NNW 10.4 mph - N/A   Clear
12:52 AM 30.6 °F 22.4 °F 23.0 °F 74% 29.98 in 10.0 mi NW 9.2 mph - N/A   Clear
1:13 AM 30.2 °F 22.6 °F 23.0 °F 75% 29.99 in 10.0 mi NW 8.1 mph - N/A   Clear
1:32 AM 29.8 °F 23.9 °F 22.8 °F 75% 30.00 in 10.0 mi NW 5.8 mph - N/A   Clear
1:52 AM 29.1 °F 22.1 °F 22.1 °F 75% 30.00 in 10.0 mi NW 6.9 mph - N/A   Clear
2:13 AM 28.0 °F 22.8 °F 21.7 °F 77% 30.01 in 10.0 mi NW 4.6 mph - N/A   Clear
2:32 AM 27.1 °F 20.7 °F 21.2 °F 78% 30.02 in 10.0 mi WNW 5.8 mph - N/A   Clear
2:52 AM 27.0 °F 23.0 °F 21.2 °F 79% 30.02 in 10.0 mi WNW 3.5 mph - N/A   Clear
3:13 AM 27.1 °F 23.2 °F 20.3 °F 75% 30.01 in 10.0 mi WNW 3.5 mph - N/A   Clear
3:32 AM 27.0 °F - 20.5 °F 77% 30.01 in 10.0 mi Calm Calm - N/A   Clear
3:52 AM 26.4 °F 20.9 °F 21.2 °F 81% 30.00 in 10.0 mi NW 4.6 mph - N/A   Clear
4:13 AM 26.1 °F 20.5 °F 21.7 °F 84% 30.01 in 10.0 mi WNW 4.6 mph - N/A   Clear
4:32 AM 26.4 °F 22.4 °F 20.3 °F 78% 30.00 in 10.0 mi WNW 3.5 mph - N/A   Clear
4:52 AM 26.4 °F - 21.2 °F 81% 30.00 in 10.0 mi Calm Calm - N/A   Clear
5:13 AM 26.1 °F - 21.2 °F 82% 30.00 in 10.0 mi Calm Calm - N/A   Clear
5:32 AM 25.3 °F - 21.0 °F 84% 30.01 in 10.0 mi Calm Calm - N/A   Clear
5:52 AM 25.2 °F - 21.2 °F 85% 30.01 in 10.0 mi Calm Calm - N/A   Clear
6:13 AM 24.8 °F - 20.3 °F 83% 30.01 in 10.0 mi Calm Calm - N/A   Clear
6:32 AM 24.3 °F - 20.3 °F 85% 30.00 in 10.0 mi Calm Calm - N/A   Clear
6:52 AM 24.3 °F - 20.3 °F 85% 30.00 in 10.0 mi Calm Calm - N/A   Clear
7:12 AM 23.9 °F - 20.1 °F 85% 30.00 in 10.0 mi Calm Calm - N/A   Clear
7:32 AM 23.7 °F - 20.1 °F 86% 30.00 in 10.0 mi Calm Calm - N/A   Clear
7:52 AM 23.2 °F - 19.9 °F 87% 30.00 in 7.0 mi Calm Calm - N/A   Clear
8:12 AM 22.6 °F - 19.6 °F 88% 30.00 in 7.0 mi Calm Calm - N/A   Clear
8:32 AM 23.9 °F - 21.2 °F 89% 30.01 in 7.0 mi Calm Calm - N/A   Clear
8:52 AM 25.5 °F - 22.1 °F 87% 30.01 in 7.0 mi Calm Calm - N/A   Clear
9:13 AM 26.1 °F - 21.7 °F 84% 30.01 in 10.0 mi Calm Calm - N/A   Clear
9:32 AM 27.0 °F 20.5 °F 22.1 °F 82% 30.01 in 10.0 mi NNE 5.8 mph - N/A   Clear
9:52 AM 27.7 °F 21.3 °F 22.8 °F 82% 30.02 in 10.0 mi NNE 5.8 mph - N/A   Clear
10:12 AM 28.2 °F 22.0 °F 22.5 °F 79% 30.02 in 10.0 mi NNE 5.8 mph - N/A   Clear
10:33 AM 29.1 °F 23.0 °F 23.0 °F 78% 30.02 in 10.0 mi NNE 5.8 mph - N/A   Clear
10:52 AM 30.4 °F 23.6 °F 23.0 °F 74% 30.02 in 10.0 mi North 6.9 mph - N/A   Clear
11:13 AM 30.2 °F 22.6 °F 22.8 °F 74% 30.01 in 10.0 mi North 8.1 mph - N/A   Clear
11:32 AM 30.9 °F 23.5 °F 22.8 °F 72% 30.01 in 10.0 mi North 8.1 mph - N/A   Clear
11:52 AM 32.0 °F 24.2 °F 22.6 °F 68% 30.00 in 10.0 mi North 9.2 mph - N/A   Clear
12:12 PM 32.0 °F 24.8 °F 22.6 °F 68% 30.00 in 10.0 mi North 8.1 mph - N/A   Clear
12:32 PM 32.4 °F 24.6 °F 22.8 °F 68% 30.01 in 10.0 mi North 9.2 mph - N/A   Clear
12:52 PM 32.4 °F 24.0 °F 22.3 °F 66% 30.00 in 10.0 mi NNE 10.4 mph - N/A   Clear
1:12 PM 32.2 °F 25.8 °F 22.5 °F 67% 30.00 in 10.0 mi North 6.9 mph - N/A   Clear
1:32 PM 32.2 °F 22.7 °F 22.8 °F 68% 29.99 in 10.0 mi North 12.7 mph - N/A   Clear
1:53 PM 32.0 °F 23.0 °F 21.9 °F 66% 30.00 in 10.0 mi North 11.5 mph - N/A   Clear
2:12 PM 32.0 °F 23.6 °F 22.3 °F 67% 30.00 in 10.0 mi North 10.4 mph - N/A   Clear
2:33 PM 32.0 °F 26.4 °F 22.3 °F 67% 30.00 in 10.0 mi North 5.8 mph - N/A   Clear
2:52 PM 32.0 °F 24.8 °F 22.1 °F 67% 30.00 in 10.0 mi North 8.1 mph - N/A   Clear
3:12 PM 32.0 °F 24.2 °F 22.6 °F 68% 30.00 in 10.0 mi North 9.2 mph - N/A   Scattered Clouds
3:33 PM 31.6 °F 25.1 °F 24.1 °F 74% 30.01 in 2.5 mi North 6.9 mph - N/A Snow Light Snow
3:52 PM 30.7 °F 23.3 °F 25.5 °F 81% 30.01 in 1.2 mi NNE 8.1 mph - N/A Snow Light Snow
4:12 PM 30.4 °F 22.2 °F 25.7 °F 83% 30.00 in 4.0 mi NNE 9.2 mph - N/A Snow Light Snow
4:33 PM 30.6 °F 21.2 °F 25.7 °F 82% 30.00 in 7.0 mi NNE 11.5 mph - N/A Snow Light Snow
4:52 PM 30.0 °F 20.5 °F 26.6 °F 87% 30.00 in 2.0 mi NNE 11.5 mph - N/A Snow Light Snow
5:12 PM 29.7 °F 20.1 °F 27.0 °F 90% 30.00 in 3.0 mi NNE 11.5 mph - N/A Snow Light Snow
5:33 PM 29.3 °F 21.5 °F 27.0 °F 91% 30.00 in 3.0 mi NNE 8.1 mph - N/A Snow Light Snow
5:52 PM 29.3 °F 20.8 °F 26.8 °F 90% 30.00 in 2.5 mi NE 9.2 mph - N/A Snow Light Snow
6:12 PM 29.3 °F 20.8 °F 27.0 °F 91% 30.00 in 2.5 mi NNE 9.2 mph - N/A Snow Light Snow
6:33 PM 29.3 °F 21.5 °F 27.0 °F 91% 30.00 in 3.0 mi NNE 8.1 mph - N/A Snow Light Snow
7:12 PM 29.1 °F 23.0 °F 26.6 °F 90% 30.01 in 3.0 mi NNE 5.8 mph - N/A Snow Light Snow
7:33 PM 29.1 °F 20.6 °F 26.6 °F 90% 30.01 in 2.5 mi North 9.2 mph - N/A Snow Light Snow
7:52 PM 28.9 °F 20.4 °F 26.4 °F 90% 30.01 in 2.5 mi NNE 9.2 mph - N/A Snow Light Snow
8:12 PM 28.4 °F 20.4 °F 26.1 °F 91% 30.01 in 4.0 mi NNE 8.1 mph - N/A Snow Light Snow
8:33 PM 28.6 °F 23.5 °F 26.1 °F 90% 30.01 in 5.0 mi NE 4.6 mph - N/A Snow Light Snow
8:52 PM 28.4 °F 21.2 °F 25.3 °F 88% 30.01 in 5.0 mi NE 6.9 mph - N/A Snow Light Snow
9:12 PM 27.9 °F 20.6 °F 24.8 °F 88% 30.01 in 7.0 mi NE 6.9 mph - N/A   Scattered Clouds
9:33 PM 27.5 °F 21.1 °F 24.8 °F 90% 30.01 in 7.0 mi NE 5.8 mph - N/A   Scattered Clouds
9:52 PM 27.5 °F 21.1 °F 24.6 °F 89% 30.01 in 10.0 mi NE 5.8 mph - N/A   Clear
10:12 PM 27.3 °F 22.0 °F 24.6 °F 90% 30.01 in 5.0 mi NE 4.6 mph - N/A Snow Light Snow
10:32 PM 26.8 °F 21.4 °F 24.3 °F 90% 30.00 in 5.0 mi NE 4.6 mph - N/A Snow Light Snow
10:52 PM 26.2 °F 22.1 °F 23.9 °F 91% 30.00 in 5.0 mi NNE 3.5 mph - N/A   Clear
11:13 PM 26.2 °F 22.1 °F 23.9 °F 91% 30.01 in 5.0 mi NNE 3.5 mph - N/A   Clear
11:32 PM 26.2 °F 20.7 °F 23.9 °F 91% 30.01 in 5.0 mi North 4.6 mph - N/A   Clear
11:52 PM 26.1 °F 20.5 °F 23.9 °F 92% 30.01 in 5.0 mi NNE 4.6 mph - N/A   Clear